Regional Weather Roundup
Issued by NWS

Home | Current Version | Previous Version | Text Only | Print | Product List | Glossary On
Versions: 1 2 3 4 5 6 7 8 9 10 11 12 13 14 15 16 17 18 19 20 21 22 23 24 25 26 27 28
000
ASCA42 TJSJ 271110
RWRPR
PUERTO RICO/U.S. VIRGIN ISLANDS HOURLY WEATHER ROUNDUP
NATIONAL WEATHER SERVICE SAN JUAN PR
700 AM AST TUE SEP 27 2016

PRZ001>002-007>008-010-271200-
PUERTO RICO

CITY           SKY/WX    TMP DP  RH WIND       PRES   REMARKS
SAN JUAN LMM   MOSUNNY   81  77  89 S3        29.97R THUNDER
CEIBA          PTSUNNY   81  79  94 CALM      29.99R
$$

VIZ001>002-271200-
U.S. VIRGIN ISLANDS

CITY           SKY/WX    TMP DP  RH WIND       PRES   REMARKS
CHARLOTTE AMA  SUNNY     84  79  84 E7        29.96R HX  96
CHRISTIANSTED  SUNNY     81  79  94 E7        29.96R
$$

HOURLY WEATHER ROUNDUP FOR THE NEWS MEDIA

CITY           SKY/WX    TMP DP  RH WIND       PRES   REMARKS
ORLANDO        CLEAR     71  69  93 SE5       29.92R
NEW YORK       CLOUDY    67  63  87 W13       29.91S
NEWARK         LGT RAIN  65  62  90 W8        29.91R
CHICAGO        CLEAR     52  40  63 W14       29.84S
HARTFORD       RAIN      67  64  90 S10       29.90S FOG
BOSTON         LGT RAIN  60  60 100 CALM      29.90F FOG
DALLAS         CLOUDY    68  58  70 N6        30.11S
PHILADELPHIA   CLOUDY    67  63  87 W9        29.94R
LOS ANGELES    PTCLDY    73  44  35 E5        29.84R
WASHINGTON DC  CLOUDY    65  62  90 N8        29.96S



USA.gov is the U.S. government's official web portal to all federal, state and local government web resources and services.